Location: Newark
(54.6833°N, 25.2833°E)
Time: 14:24:40
(UTC+00:00)

Altair - Pass Details

Date: 19 November 2019
Orbit: 1502 x 1682 km, 47.2° (Epoch: 09 December)

Event Time Altitude Azimuth Distance (km) Brightness Sun altitude
Rises 08:12:41 0° 283° (WNW) 4,667 9.7 12.2°
Reaches altitude 10° 08:16:42 10° 268° (W) 3,703 9.3 12.4°
Maximum altitude 08:22:52 20° 226° (SW) 3,016 9.4 12.8°
Drops below altitude 10° 08:29:10 10° 184° (S) 3,780 10.9 13.2°
Sets 08:33:21 0° 168° (SSE) 4,794 11.9 13.4°
